Location: Nitra
(48.3167°N, 18.0833°E)
Time: 18:20:32
(UTC+01:00)

STARLINK-1710 - Pass Details

Date: 24 September 2020
Orbit: 378 x 381 km, 53.0° (Epoch: 30 October)

Event Time Altitude Azimuth Distance (km) Brightness Sun altitude
Exits shadow 03:36:01 14° 56° (NE) 1,209 6.2 -29.0°
Drops below altitude 10° 03:36:31 10° 60° (ENE) 1,401 6.6 -29.0°
Sets 03:38:39 0° 68° (ENE) 2,255 7.9 -28.7°
